Regional Weather Roundup
Issued by NWS

Home | Current Version | Previous Version | Graphics & Text | Print | Product List | Glossary Off
Versions: 1 2 3 4 5 6 7 8 9 10 11 12 13 14 15 16 17 18 19 20 21 22 23 24 25 26 27 28 29 30 31 32 33 34 35 36 37 38 39 40 41 42 43 44 45 46 47 48 49 50

000
ASUS43 KTOP 312359
RWRKS

WEATHER ROUNDUP FOR KANSAS
NATIONAL WEATHER SERVICE GOODLAND KS
700 PM CDT THU JUL 31 2014

NOTE:  "FAIR" INDICATES FEW OR NO CLOUDS BELOW 12,000 FEET WITH NO
SIGNIFICANT WEATHER AND/OR OBSTRUCTIONS TO VISIBILITY.

KSZ001>006-013>018-027>032-041>047-010100-
NORTHWEST KANSAS

CITY           SKY/WX    TMP DP  RH WIND       PRES   REMARKS
GOODLAND       SUNNY     82  43  25 W5        30.15S
6HR MIN TEMP:  77; 6HR MAX TEMP:  84;

HAYS           MOSUNNY   84  55  37 S9        30.04F
HILL CITY      MOSUNNY   90  45  21 W3        30.03F
6HR MIN TEMP:  83; 6HR MAX TEMP:  92;

RUSSELL        SUNNY     84  57  39 S9        30.02F
6HR MIN TEMP:  80; 6HR MAX TEMP:  86;

$$

KSZ061>065-074>080-084>089-010100-
SOUTHWEST KANSAS

CITY           SKY/WX    TMP DP  RH WIND       PRES   REMARKS
DODGE CITY     SUNNY     81  51  35 CALM      30.10F
6HR MIN TEMP:  77; 6HR MAX TEMP:  83;

ELKHART          N/A     77  53  43 NE7         N/A
GARDEN CITY    MOSUNNY   80  53  39 VRB5      30.11F
6HR MIN TEMP:  76; 6HR MAX TEMP:  82;

GREAT BEND       N/A     82  55  39 S6        30.05S
LIBERAL        SUNNY     81  52  36 E6        30.14S
$$

KSZ066>073-081>083-090>101-010100-
SOUTHEAST KANSAS

CITY           SKY/WX    TMP DP  RH WIND       PRES   REMARKS
CHANUTE        SUNNY     81  59  47 SE3       30.05S
6HR MIN TEMP:  78; 6HR MAX TEMP:  83;

COFFEYVILLE    PTSUNNY   82  61  48 E6        30.03S
6HR MIN TEMP:  76; 6HR MAX TEMP:  83;

HUTCHINSON     SUNNY     81  52  36 CALM      30.06F
6HR MIN TEMP:  77; 6HR MAX TEMP:  84;

NEWTON         SUNNY     81  52  36 W7        30.09F
PARSONS        MOSUNNY   82  61  48 VRB3      30.05S
6HR MIN TEMP:  77; 6HR MAX TEMP:  84;

WICHITA INTL   MOSUNNY   83  52  34 NE6       30.05S
6HR MIN TEMP:  78; 6HR MAX TEMP:  85;

WICHITA JABRA  SUNNY     81  57  43 SE3       30.05F
6HR MIN TEMP:  79; 6HR MAX TEMP:  83;

WINFIELD       SUNNY     80  62  54 SE5       30.05F
6HR MIN TEMP:  77; 6HR MAX TEMP:  83;

$$

KSZ007>012-019>026-033>040-048>060-102>105-010100-
NORTHEAST KANSAS

CITY           SKY/WX    TMP DP  RH WIND       PRES   REMARKS
CONCORDIA      SUNNY     84  56  38 SE13      30.01F
6HR MIN TEMP:  81; 6HR MAX TEMP:  87;

EMPORIA        SUNNY     81  53  37 E7        30.05S
6HR MIN TEMP:  78; 6HR MAX TEMP:  84;

LAWRENCE       SUNNY     85  56  37 CALM      30.04F
6HR MIN TEMP:  78; 6HR MAX TEMP:  88;

MANHATTAN      SUNNY     84  53  34 SW6       30.02F
6HR MIN TEMP:  80; 6HR MAX TEMP:  86;

OLATHE IND     MOSUNNY   82  55  39 E6        30.05F
6HR MIN TEMP:  79; 6HR MAX TEMP:  85;

OLATHE EXE     SUNNY     80  57  45 SE6       30.04F
6HR MIN TEMP:  78; 6HR MAX TEMP:  83;

SALINA         SUNNY     86  48  26 E7        30.03F
6HR MIN TEMP:  82; 6HR MAX TEMP:  89;

TOPEKA BILLARD SUNNY     85  55  35 E7        30.03F
6HR MIN TEMP:  82; 6HR MAX TEMP:  87;

TOPEKA FORBES  SUNNY     85  51  31 SE7       30.03F
6HR MIN TEMP:  81; 6HR MAX TEMP:  86;

$$



USA.gov is the U.S. government's official web portal to all federal, state and local government web resources and services.